Tillbaka till svenska Fidonet
English   Information   Debug  
FILM   0/18
FNEWS_PUBLISH   4758
FN_SYSOP   42037
FN_SYSOP_OLD1   71952
FTP_FIDO   0/2
FTSC_PUBLIC   0/13899
FUNNY   0/4886
GENEALOGY.EUR   0/71
GET_INFO   105
GOLDED   0/408
HAM   3262/16397
HOLYSMOKE   0/6791
HOT_SITES   0/1
HTMLEDIT   0/71
HUB203   466
HUB_100   264
HUB_400   39
HUMOR   0/29
IC   0/2851
INTERNET   0/424
INTERUSER   0/3
IP_CONNECT   719
JAMNNTPD   0/233
JAMTLAND   0/47
KATTY_KORNER   0/41
LAN   0/16
LINUX-USER   0/19
LINUXHELP   0/1155
LINUX   0/22267
LINUX_BBS   0/957
mail   18.68
mail_fore_ok   249
MENSA   0/341
MODERATOR   0/102
MONTE   0/992
MOSCOW_OKLAHOMA   0/1245
MUFFIN   0/783
MUSIC   0/321
N203_STAT   938
N203_SYSCHAT   313
NET203   321
NET204   69
NET_DEV   0/10
NORD.ADMIN   0/101
NORD.CHAT   0/2572
NORD.FIDONET   189
NORD.HARDWARE   0/28
NORD.KULTUR   0/114
NORD.PROG   0/32
NORD.SOFTWARE   0/88
NORD.TEKNIK   0/58
NORD   0/453
OCCULT_CHAT   0/93
OS2BBS   0/787
OS2DOSBBS   0/580
OS2HW   0/42
OS2INET   0/37
OS2LAN   0/134
OS2PROG   0/36
OS2REXX   0/113
OS2USER-L   207
OS2   0/4806
OSDEBATE   0/18996
PASCAL   0/490
PERL   0/457
PHP   0/45
POINTS   0/405
POLITICS   0/29554
POL_INC   10124/14731
PSION   103
R20_ADMIN   1132
R20_AMATORRADIO   0/2
R20_BEST_OF_FIDONET   14
R20_CHAT   0/893
R20_DEPP   0/3
R20_DEV   399
R20_ECHO2   1670
R20_ECHOPRES   0/35
R20_ESTAT   0/719
R20_FIDONETPROG...
...RAM.MYPOINT
  0/2
R20_FIDONETPROGRAM   0/22
R20_FIDONET   0/248
R20_FILEFIND   0/24
R20_FILEFOUND   0/22
R20_HIFI   0/3
R20_INFO2   3561
R20_INTERNET   0/12940
R20_INTRESSE   0/60
R20_INTR_KOM   0/99
R20_KANDIDAT.CHAT   42
R20_KANDIDAT   28
R20_KOM_DEV   112
R20_KONTROLL   1506/13360
R20_KORSET   0/18
R20_LOKALTRAFIK   0/24
R20_MODERATOR   0/1852
R20_NC   76
R20_NET200   245
R20_NETWORK.OTH...
...ERNETS
  0/13
R20_OPERATIVSYS...
...TEM.LINUX
  0/44
R20_PROGRAMVAROR   0/1
R20_REC2NEC   534
R20_SFOSM   0/341
R20_SF   0/108
R20_SPRAK.ENGLISH   0/1
R20_SQUISH   107
R20_TEST   2
R20_WORST_OF_FIDONET   20
RAR   0/9
RA_MULTI   106
RA_UTIL   0/162
REGCON.EUR   563/2066
REGCON   0/13
SCIENCE   0/1206
SF   0/239
SHAREWARE_SUPPORT   0/5146
SHAREWRE   0/14
SIMPSONS   0/169
STATS_OLD1   0/2539.065
STATS_OLD2   0/2530
STATS_OLD3   0/2395.095
STATS_OLD4   0/1692.25
SURVIVOR   0/495
SYSOPS_CORNER   0/3
SYSOP   0/84
TAGLINES   0/112
TEAMOS2   0/4530
TECH   0/2617
TEST.444   0/105
TRAPDOOR   0/19
TREK   0/755
TUB   0/290
UFO   0/40
UNIX   0/1316
USA_EURLINK   0/102
USR_MODEMS   0/1
VATICAN   0/2740
VIETNAM_VETS   0/14
VIRUS   0/378
VIRUS_INFO   0/201
VISUAL_BASIC   0/473
WHITEHOUSE   0/5187
WIN2000   0/101
WIN32   0/30
WIN95   1691/4291
WIN95_OLD1   32678/70272
WINDOWS   0/1517
WWB_SYSOP   0/419
WWB_TECH   0/810
ZCC-PUBLIC   0/1
ZEC   4

 
4DOS   0/134
ABORTION   0/7
ALASKA_CHAT   0/506
ALLFIX_FILE   0/1313
ALLFIX_FILE_OLD1   0/7997
ALT_DOS   0/152
AMATEUR_RADIO   0/1039
AMIGASALE   0/14
AMIGA   0/331
AMIGA_INT   0/1
AMIGA_PROG   0/20
AMIGA_SYSOP   0/26
ANIME   0/15
ARGUS   0/924
ASCII_ART   0/340
ASIAN_LINK   0/651
ASTRONOMY   0/417
AUDIO   0/92
AUTOMOBILE_RACING   0/105
BABYLON5   0/17862
BAG   135
BATPOWER   0/361
BBBS.ENGLISH   0/382
BBSLAW   0/109
BBS_ADS   0/5290
BBS_INTERNET   0/507
BIBLE   0/3563
BINKD   0/1119
BINKLEY   0/215
BLUEWAVE   0/2173
CABLE_MODEMS   0/25
CBM   0/46
CDRECORD   0/66
CDROM   0/20
CLASSIC_COMPUTER   0/378
COMICS   0/15
CONSPRCY   0/899
COOKING   39916
COOKING_OLD1   0/24719
COOKING_OLD2   0/40862
COOKING_OLD3   0/37489
COOKING_OLD4   0/35496
COOKING_OLD5   9370
C_ECHO   0/189
C_PLUSPLUS   0/31
DIRTY_DOZEN   0/201
DOORGAMES   0/2155
DOS_INTERNET   0/196
duplikat   6102
ECHOLIST   0/18295
EC_SUPPORT   0/318
ELECTRONICS   0/359
ELEKTRONIK.GER   1534
ENET.LINGUISTIC   0/13
ENET.POLITICS   0/4
ENET.SOFT   0/11701
ENET.SYSOP   34210
ENET.TALKS   0/32
ENGLISH_TUTOR   0/2000
EVOLUTION   0/1335
FDECHO   0/217
FDN_ANNOUNCE   0/7068
FIDONEWS   24756
FIDONEWS_OLD1   0/49742
FIDONEWS_OLD2   0/35949
FIDONEWS_OLD3   0/30874
FIDONEWS_OLD4   0/37224
FIDO_SYSOP   12913
FIDO_UTIL   0/180
FILEFIND   0/209
FILEGATE   0/212
Möte HAM, 16397 texter
 lista första sista föregående nästa
Text 3779, 880 rader
Skriven 2010-07-08 23:30:22 av Amsat List (1:323/120.0)
Ärende: [keps]  orb10189.amsa
=============================
[keps]  orb10189.amsa

Return-Path: <keps-bounces@amsat.org>
X-Rcpt: craig.healy@chowda.com
X-UIDL: 1278645331.32638

SB KEPS @ AMSAT  $ORB10189.O
Orbital Elements  10189.OSCAR

HR AMSAT ORBITAL ELEMENTS FOR OSCAR SATELLITES
FROM WA5QGD FORT WORTH,TX July 8, 2010
Send Subscribe/unsubscribe to KEPS at http://www.amsat.org/mailman/listinfo/kep
BID: ORB10189.O
TO ALL RADIO AMATEURS BT

Satellite: AO-07
Catalog number: 07530
Epoch time:      10188.55324501
Element set:    0821
Inclination:      101.3998 deg
RA of node:       203.6290 deg
Eccentricity:    0.0011612
Arg of perigee:   234.0179 deg
Mean anomaly:     125.9816 deg
Mean motion:   12.53578788 rev/day
Decay rate:       -2.7e-07 rev/day^2
Epoch rev:           63100
Checksum:              283

Satellite: FO-29
Catalog number: 24278
Epoch time:      10189.55120049
Element set:     348
Inclination:      098.5151 deg
RA of node:       015.7283 deg
Eccentricity:    0.0351462
Arg of perigee:   068.4635 deg
Mean anomaly:     295.3576 deg
Mean motion:   13.52951016 rev/day
Decay rate:        9.0e-08 rev/day^2
Epoch rev:           68599
Checksum:              330

Satellite: SO-33
Catalog number: 25509
Epoch time:      10189.57764367
Element set:     749
Inclination:      031.4313 deg
RA of node:       027.5550 deg
Eccentricity:    0.0353486
Arg of perigee:   117.0302 deg
Mean anomaly:     246.6854 deg
Mean motion:   14.28313036 rev/day
Decay rate:        5.4e-07 rev/day^2
Epoch rev:           61111
Checksum:              289

Satellite: RS-22
Catalog number: 27939
Epoch time:      10189.66157012
Element set:     343
Inclination:      097.8902 deg
RA of node:       054.2344 deg
Eccentricity:    0.0013887
Arg of perigee:   357.1553 deg
Mean anomaly:     002.9561 deg
Mean motion:   14.63431349 rev/day
Decay rate:       -1.3e-07 rev/day^2
Epoch rev:           36209
Checksum:              301

Satellite: VO-52
Catalog number: 28650
Epoch time:      10189.74242202
Element set:     546
Inclination:      097.6910 deg
RA of node:       242.3356 deg
Eccentricity:    0.0026411
Arg of perigee:   204.0003 deg
Mean anomaly:     155.9920 deg
Mean motion:   14.81769533 rev/day
Decay rate:       1.32e-06 rev/day^2
Epoch rev:           27988
Checksum:              293

Satellite: SO-67
Catalog number: 35870
Epoch time:      10189.70571140
Element set:     891
Inclination:      097.3302 deg
RA of node:       238.2709 deg
Eccentricity:    0.0004142
Arg of perigee:   043.4184 deg
Mean anomaly:     105.0052 deg
Mean motion:   15.20945938 rev/day
Decay rate:       3.76e-06 rev/day^2
Epoch rev:            4472
Checksum:              290

Satellite: HO-68
Catalog number: 36122
Epoch time:      10189.60642434
Element set:     467
Inclination:      100.4669 deg
RA of node:       249.8179 deg
Eccentricity:    0.0007184
Arg of perigee:   289.7593 deg
Mean anomaly:     070.2750 deg
Mean motion:   13.16281144 rev/day
Decay rate:       -4.5e-07 rev/day^2
Epoch rev:            2703
Checksum:              307

/EX
SB KEPS @ AMSAT  $ORB10189.D
Orbital Elements  10189.MICROS

HR AMSAT ORBITAL ELEMENTS FOR THE MICROSATS
FROM WA5QGD FORT WORTH,TX July 8, 2010
Send Subscribe/unsubscribe to KEPS at http://www.amsat.org/mailman/listinfo/kep
BID: ORB10189.D
TO ALL RADIO AMATEURS BT

Satellite: UO-11
Catalog number: 14781
Epoch time:      10189.45696989
Element set:     282
Inclination:      098.0536 deg
RA of node:       241.2619 deg
Eccentricity:    0.0009231
Arg of perigee:   163.3748 deg
Mean anomaly:     196.7870 deg
Mean motion:   14.79815919 rev/day
Decay rate:       3.81e-06 rev/day^2
Epoch rev:           41495
Checksum:              350

Satellite: AO-16
Catalog number: 20439
Epoch time:      10188.87321015
Element set:     938
Inclination:      098.3332 deg
RA of node:       145.9662 deg
Eccentricity:    0.0011853
Arg of perigee:   102.8433 deg
Mean anomaly:     257.4072 deg
Mean motion:   14.31866227 rev/day
Decay rate:        1.3e-07 rev/day^2
Epoch rev:            6834
Checksum:              293

Satellite: LO-19
Catalog number: 20442
Epoch time:      10188.86761218
Element set:     849
Inclination:      098.2922 deg
RA of node:       151.6786 deg
Eccentricity:    0.0012866
Arg of perigee:   097.9054 deg
Mean anomaly:     262.3582 deg
Mean motion:   14.32096934 rev/day
Decay rate:       -5.4e-07 rev/day^2
Epoch rev:            6851
Checksum:              333

Satellite: AO-27
Catalog number: 22825
Epoch time:      10188.87441693
Element set:     572
Inclination:      098.4845 deg
RA of node:       136.2898 deg
Eccentricity:    0.0007831
Arg of perigee:   203.3101 deg
Mean anomaly:     156.7729 deg
Mean motion:   14.29301867 rev/day
Decay rate:        8.2e-07 rev/day^2
Epoch rev:           87500
Checksum:              325

Satellite: IO-26
Catalog number: 22826
Epoch time:      10188.79619153
Element set:    0309
Inclination:      098.4797 deg
RA of node:       136.8077 deg
Eccentricity:    0.0008500
Arg of perigee:   198.4450 deg
Mean anomaly:     161.6412 deg
Mean motion:   14.29557832 rev/day
Decay rate:       -2.0e-08 rev/day^2
Epoch rev:           87510
Checksum:              322

Satellite: GO-32
Catalog number: 25397
Epoch time:      10188.84100346
Element set:    0229
Inclination:      098.3125 deg
RA of node:       195.1529 deg
Eccentricity:    0.0001156
Arg of perigee:   150.6564 deg
Mean anomaly:     209.4673 deg
Mean motion:   14.23180773 rev/day
Decay rate:        3.8e-07 rev/day^2
Epoch rev:           62298
Checksum:              304

